Préparation du vol

Réserver un ULM chez EFU                     Découvrir nos appareils                     Coordonnées de l'école

Available data for LFPN from the past hour

METAR
LFPN 201800Z AUTO 27006KT CAVOK 20/10 Q1014 NOSIG
LFPN 201730Z AUTO 26006KT 220V300 CAVOK 21/11 Q1014 NOSIG
TAF
TAF LFPN 201700Z 2018/2103 29008KT CAVOK BECMG 2021/2023 VRB03KT

Pour avoir des informations détaillée sur la météo à venir vous pouvez consulter Aeroweb

prevision des pluies

Nota : Heuro locale = heure CET

ATISATIS Étampes129.900
SOLÉtampes sol121.850
TWRÉtampes tour119.050
VDFÉtampes gonio119.050

OLIVIA

Outil en Ligne Intégré de Visualisation d'Informations Aéronautiques

OLIVIA